Regional Weather Roundup
Issued by NWS

Home | Current Version | Previous Version | Text Only | Print | Product List | Glossary On
Versions: 1 2 3 4 5 6 7 8 9 10 11 12 13 14 15 16 17 18 19 20 21 22 23 24 25 26 27 28 29 30 31 32 33 34 35 36 37 38 39 40 41 42 43 44 45 46 47 48 49 50
000
ASUS43 KLSX 282057
RWRMO

WEATHER SUMMARY FOR MISSOURI
NATIONAL WEATHER SERVICE SPRINGFIELD MO
400 PM CDT SUN AUG 28 2016

NOTE: "FAIR" INDICATES FEW OR NO CLOUDS BELOW 12,000 FEET WITH NO
       SIGNIFICANT WEATHER AND/OR OBSTRUCTIONS TO VISIBILITY.
       CURRENT SKY AND/OR WEATHER CONDITIONS ARE NOT AVAILABLE FOR
       CHILLICOTHE AND FARMINGTON.

MOZ001>031-035>038-043-044-053-054-282200-
...NORTHERN AND WESTERN MISSOURI...

CITY           SKY/WX    TMP DP  RH WIND       PRES   REMARKS
KANSAS CTY INT PTSUNNY   89  69  51 SE9       30.08F HX  93
LEE`S SUMMIT   MOSUNNY   88  71  57 VRB7      30.08F HX  94
ST JOSEPH      PTSUNNY   77  72  84 N10       30.09S

$$
MOZ066>068-077>081-088>096-101>105-282200-
...SOUTHWEST MISSOURI...

CITY           SKY/WX    TMP DP  RH WIND       PRES   REMARKS
SPRINGFIELD    MOSUNNY   88  65  46 SE8       30.08F HX  90
JOPLIN         SUNNY     89  67  47 VRB6      30.06F HX  92
BRANSON        PTSUNNY   88  70  55 E6        30.11F HX  92

$$
MOZ032>034-039>042-045>050-055>058-069>072-282200-
...CENTRAL MISSOURI...

CITY           SKY/WX    TMP DP  RH WIND       PRES   REMARKS
COLUMBIA       NOT AVBL
JEFFERSON CITY SUNNY     90  69  50 E8        30.08F HX  94
ROLLA          SUNNY     88  69  53 S5        30.10F HX  92
SEDALIA        PTSUNNY   87  73  62 E3        30.09F HX  94

$$
MOZ051-052-059>065-282200-
...EAST CENTRAL MISSOURI...

CITY           SKY/WX    TMP DP  RH WIND       PRES   REMARKS
ST LOUIS INTL  MOSUNNY   95  67  39 VRB5      30.10F HX  99

$$
MOZ072>076-082>087-097>100-106>115-282200-
...SOUTH CENTRAL AND SOUTHEAST MISSOURI...

CITY           SKY/WX    TMP DP  RH WIND       PRES   REMARKS
CAPE GIRARDEAU SUNNY     92  73  53 E6        30.07F HX 100
POPLAR BLUFF   MOSUNNY   92  74  55 NE5       30.06F HX 101
WEST PLAINS    SUNNY     89  67  47 E6        30.12F HX  92

$$


USA.gov is the U.S. government's official web portal to all federal, state and local government web resources and services.